Weather reports worldwide

Advertisment
Pershore, United Kingdom (3529): temperature & dewpoint: 14.10.2017 22:00:00 - 20.10.2017 22:00:00 (BST)Pershore, United Kingdom (3529): temperature -20cm & temperature -100cm: 14.10.2017 22:00:00 - 20.10.2017 22:00:00 (BST)Pershore, United Kingdom (3529): wind speed & gusts: 14.10.2017 22:00:00 - 20.10.2017 22:00:00 (BST)Pershore, United Kingdom (3529): wind direction: 14.10.2017 22:00:00 - 20.10.2017 22:00:00 (BST)Pershore, United Kingdom (3529): reduced air pressure: 14.10.2017 22:00:00 - 20.10.2017 22:00:00 (BST)Pershore, United Kingdom (3529): visibility: 14.10.2017 22:00:00 - 20.10.2017 22:00:00 (BST)Pershore, United Kingdom (3529): precipitation: 14.10.2017 22:00:00 - 20.10.2017 22:00:00 (BST)
Date & Time tt [°C] td [°C] tt -20cm [°C] tt -100cm [°C] ff [km/h] ff [kn] fx [km/h] fx [kn] dd ppp [hPa] vv [km] rr [mm]
20.10.2017 22:00:00 12,5 10,4 - - 24 13 - - SE 1003,2 18 -
20.10.2017 21:00:00 12,3 9,6 - - 22 12 - - SE 1004,5 15 0,0
20.10.2017 20:00:00 11,9 8,5 - - 16 9 - - SSE 1005,8 15 0,0
20.10.2017 19:00:00 12,0 7,4 - - 15 8 - - SSE 1006,7 35 0,0
20.10.2017 18:00:00 12,1 7,2 - - 11 6 - - S 1007,2 24 0,0
20.10.2017 17:00:00 12,5 6,6 - - 11 6 - - SSW 1007,5 28 0,0
20.10.2017 16:00:00 13,1 6,2 - - 18 10 - - SW 1007,4 30 0,0
20.10.2017 15:00:00 14,4 7,6 - - 22 12 - - SW 1007,3 25 0,0
20.10.2017 14:00:00 13,4 8,7 - - 15 8 - - W 1006,9 45 0,0
20.10.2017 13:00:00 13,3 8,9 - - 21 11 - - W 1006,6 30 0,0
20.10.2017 12:00:00 13,9 10,4 - - 18 10 - - WSW 1006,0 30 0,0
20.10.2017 11:00:00 12,7 9,5 - - 22 12 - - WSW 1005,2 50 0,0
20.10.2017 10:00:00 12,6 9,9 13,5 14,4 15 8 - - WSW 1003,8 50 0,0
20.10.2017 09:00:00 12,8 10,3 - - 16 9 - - W 1002,0 50 0,0
20.10.2017 08:00:00 12,5 11,2 - - 16 9 - - WSW 1000,4 50 0,0
20.10.2017 07:00:00 11,0 10,1 - - 9 5 - - WSW 998,9 40 0,0
20.10.2017 06:00:00 11,8 11,1 - - 15 8 - - W 997,7 40 0,0
20.10.2017 05:00:00 11,8 11,6 - - 11 6 - - W 995,7 17 0,2
20.10.2017 04:00:00 11,8 11,4 - - 4 2 - - S 994,2 8 2,0
20.10.2017 03:00:00 11,9 11,1 - - 8 4 - - SSE 993,9 3,3 0,6
20.10.2017 02:00:00 11,9 11,0 - - 16 9 - - SSE 994,1 15 0,2
20.10.2017 01:00:00 12,5 10,3 - - 24 13 - - SSE 994,6 30 0,0
20.10.2017 00:00:00 13,1 10,4 - - 26 14 - - SSE 994,8 35 0,0
19.10.2017 23:00:00 13,7 12,1 - - 21 11 46 25 SE 995,2 50 0,0
19.10.2017 22:00:00 13,6 12,1 - - 31 17 52 28 SE 995,5 9 0,0
19.10.2017 21:00:00 14,3 12,1 - - 34 18 50 27 SE 996,3 15 0,2
19.10.2017 20:00:00 14,1 12,4 - - 22 12 - - SE 997,1 12 0,2
19.10.2017 19:00:00 13,9 12,5 - - 21 11 - - SE 997,8 21 0,2
19.10.2017 18:00:00 14,1 12,5 - - 16 9 - - SSE 998,8 14 0,4
19.10.2017 17:00:00 14,6 12,8 - - 13 7 - - S 999,0 35 0,0
19.10.2017 16:00:00 14,2 13,7 - - 11 6 - - SSW 999,3 10 1,4
19.10.2017 15:00:00 16,2 14,9 - - 16 9 - - SE 999,2 7 0,0
19.10.2017 14:00:00 15,2 14,8 - - 13 7 - - ESE 1000,5 6 0,2
19.10.2017 13:00:00 14,0 13,8 - - 11 6 - - E 1001,5 5 3,8
19.10.2017 12:00:00 13,1 12,8 - - 8 4 - - ENE 1003,1 3,6 1,6
19.10.2017 11:00:00 12,7 12,4 - - 5 3 - - E 1004,4 3,7 1,4
19.10.2017 10:00:00 12,3 12,0 13,5 14,5 5 3 - - ENE 1005,4 3,5 0,2
19.10.2017 09:00:00 11,8 11,7 - - 2 1 - - NE 1005,7 3,8 0,2
19.10.2017 08:00:00 11,2 11,1 - - 5 3 - - ENE 1005,9 2,4 0,0
19.10.2017 07:00:00 11,0 10,9 - - 2 1 - - ENE 1006,6 1,4 0,0
19.10.2017 06:00:00 11,0 10,9 - - 0 0 - - N 1007,3 2,6 0,0
19.10.2017 05:00:00 11,0 10,9 - - 4 2 - - W 1007,8 1,9 0,0
19.10.2017 04:00:00 11,3 11,2 - - 8 4 - - WSW 1008,5 0,6 0,0
19.10.2017 03:00:00 11,4 11,3 - - 5 3 - - WSW 1008,8 0,9 0,0
19.10.2017 02:00:00 11,5 11,4 - - 4 2 - - SE 1008,5 1,5 0,0
19.10.2017 01:00:00 11,5 11,4 - - 8 4 - - SSE 1009,6 2,4 0,0
19.10.2017 00:00:00 11,4 11,3 - - 4 2 - - S 1009,6 2,8 0,0
18.10.2017 23:00:00 11,2 11,1 - - 2 1 - - E 1009,7 1,4 0,0
18.10.2017 22:00:00 11,1 11,1 - - 2 1 - - E 1010,4 0,9 0,0
18.10.2017 21:00:00 11,0 10,9 - - 4 2 - - E 1010,6 1,0 0,0
18.10.2017 20:00:00 11,0 10,8 - - 4 2 - - ENE 1010,8 1,2 0,0
18.10.2017 19:00:00 10,9 10,6 - - 4 2 - - E 1010,6 3,1 0,0
18.10.2017 18:00:00 10,8 10,5 - - 5 3 - - E 1010,5 2,4 0,2
18.10.2017 17:00:00 10,9 10,4 - - 9 5 - - ENE 1011,0 5 0,0
18.10.2017 16:00:00 10,9 10,3 - - 11 6 - - E 1011,0 6 0,0
18.10.2017 15:00:00 11,0 10,0 - - 9 5 - - E 1011,5 12 0,0
18.10.2017 14:00:00 10,7 10,1 - - 8 4 - - E 1011,9 6 0,0
18.10.2017 13:00:00 10,5 9,5 - - 9 5 - - E 1012,6 8 0,0
18.10.2017 12:00:00 10,5 9,4 - - 9 5 - - E 1013,0 14 0,0
18.10.2017 11:00:00 10,4 9,0 - - 11 6 - - E 1013,3 13 0,0
18.10.2017 10:00:00 10,2 8,9 13,7 14,5 8 4 - - ENE 1013,7 19 0,0
18.10.2017 09:00:00 9,9 8,6 - - 5 3 - - ENE 1013,8 30 0,0
18.10.2017 08:00:00 9,6 8,4 - - 8 4 - - E 1013,6 24 0,0
18.10.2017 07:00:00 9,7 8,3 - - 5 3 - - ENE 1013,8 30 0,0
18.10.2017 06:00:00 9,6 8,5 - - 8 4 - - E 1014,0 35 0,0
18.10.2017 05:00:00 9,5 8,6 - - 2 1 - - NE 1014,4 19 0,0
18.10.2017 04:00:00 9,6 8,3 - - 4 2 - - NE 1014,8 6 0,6
18.10.2017 03:00:00 10,0 8,2 - - 5 3 - - ENE 1015,3 28 0,0
18.10.2017 02:00:00 9,8 8,5 - - 5 3 - - E 1016,0 26 0,2
18.10.2017 01:00:00 10,0 8,6 - - 4 2 - - NNE 1016,5 21 0,0
18.10.2017 00:00:00 10,5 9,7 - - 4 2 - - NNW 1017,5 7 0,6
17.10.2017 23:00:00 10,8 9,9 - - 0 0 - - N 1017,5 9 0,2
17.10.2017 22:00:00 11,1 9,7 - - 4 2 - - SSE 1017,2 10 0,0
17.10.2017 21:00:00 11,5 9,4 - - 2 1 - - W 1017,2 19 0,0
17.10.2017 20:00:00 12,0 9,1 - - 4 2 - - SE 1016,9 16 0,0
17.10.2017 19:00:00 12,9 8,9 - - 4 2 - - SSW 1017,1 20 0,0
17.10.2017 18:00:00 13,7 9,2 - - 5 3 - - SSW 1017,3 21 0,0
17.10.2017 17:00:00 14,7 6,7 - - 8 4 - - W 1017,3 25 0,0
17.10.2017 16:00:00 15,6 6,2 - - 15 8 - - W 1017,8 30 0,0
17.10.2017 15:00:00 16,2 6,3 - - 13 7 - - WSW 1018,1 35 0,0
17.10.2017 14:00:00 16,6 6,2 - - 18 10 - - SW 1018,8 24 0,0
17.10.2017 13:00:00 16,4 6,4 - - 15 8 - - WSW 1019,1 19 0,0
17.10.2017 12:00:00 15,0 7,4 - - 18 10 - - WSW 1019,2 16 0,0
17.10.2017 11:00:00 13,9 8,6 - - 15 8 - - SW 1019,1 16 0,0
17.10.2017 10:00:00 12,4 9,0 14,2 14,5 13 7 - - SW 1019,3 14 0,0
17.10.2017 09:00:00 10,7 8,4 - - 15 8 - - SSW 1019,0 12 0,0
17.10.2017 08:00:00 10,4 7,8 - - 11 6 - - SSW 1018,1 17 0,0
17.10.2017 07:00:00 10,4 6,9 - - 13 7 - - SW 1017,4 20 0,0
17.10.2017 06:00:00 10,1 6,8 - - 9 5 - - SSW 1017,1 17 0,0
17.10.2017 05:00:00 12,0 6,7 - - 18 10 - - SSW 1016,6 16 0,0
17.10.2017 04:00:00 11,7 7,2 - - 16 9 - - SW 1016,2 16 0,0
17.10.2017 03:00:00 12,8 6,5 - - 22 12 52 28 SW 1016,1 20 0,0
17.10.2017 02:00:00 13,4 7,0 - - 26 14 52 28 SW 1015,9 16 0,0
17.10.2017 01:00:00 13,3 7,6 - - 29 16 50 27 SSW 1015,4 15 0,0
17.10.2017 00:00:00 13,7 7,7 - - 28 15 54 29 SW 1015,2 15 0,0
16.10.2017 23:00:00 14,2 7,6 - - 28 15 61 33 SSW 1014,7 17 0,0
16.10.2017 22:00:00 14,6 7,2 - - 28 15 61 33 SSW 1013,8 19 0,0
16.10.2017 21:00:00 14,8 6,9 - - 37 20 63 34 SSW 1013,0 16 0,0
16.10.2017 20:00:00 15,3 7,6 - - 31 17 55 30 SSW 1012,8 16 0,0
16.10.2017 19:00:00 15,5 7,6 - - 37 20 68 37 SSW 1012,0 16 -
16.10.2017 18:00:00 16,2 7,1 - - 35 19 72 39 SSW 1011,2 14 0,0
16.10.2017 17:00:00 17,4 8,2 - - 39 21 72 39 SSW 1010,9 16 0,0
16.10.2017 16:00:00 18,5 9,0 - - 35 19 63 34 SSW 1010,7 15 0,0
16.10.2017 15:00:00 19,1 11,6 - - 31 17 54 29 S 1010,6 18 0,0
16.10.2017 14:00:00 18,9 12,3 - - 34 18 55 30 S 1010,7 12 0,0
16.10.2017 13:00:00 19,2 14,6 - - 31 17 55 30 S 1011,0 14 0,0
16.10.2017 12:00:00 19,1 15,1 - - 28 15 - - S 1011,0 16 0,0
16.10.2017 11:00:00 20,0 15,2 - - 24 13 - - S 1011,1 18 0,2
16.10.2017 10:00:00 19,4 15,6 14,4 14,5 22 12 - - SSE 1011,5 29 0,0
16.10.2017 09:00:00 17,4 15,5 - - 4 2 - - SE 1011,7 17 0,0
16.10.2017 08:00:00 16,2 14,6 - - 13 7 - - ESE 1011,8 10 0,0
16.10.2017 07:00:00 15,8 14,9 - - 11 6 - - SE 1013,8 8 0,0
16.10.2017 06:00:00 14,3 14,1 - - 4 2 - - E 1014,5 3,2 0,0
16.10.2017 05:00:00 15,3 15,1 - - 5 3 - - NE 1014,4 6 0,0
16.10.2017 04:00:00 13,1 12,9 - - 4 2 - - ESE 1015,1 2,2 0,0
16.10.2017 03:00:00 13,4 12,8 - - 2 1 - - S 1015,3 1,3 0,0
16.10.2017 02:00:00 14,7 14,1 - - 8 4 - - S 1015,3 5 0,0
16.10.2017 01:00:00 15,2 14,1 - - 9 5 - - SE 1015,2 5 0,0
16.10.2017 00:00:00 15,0 13,7 - - 13 7 - - SE 1015,6 6 0,0
15.10.2017 23:00:00 15,1 13,5 - - 9 5 - - SE 1016,0 7 0,0
15.10.2017 22:00:00 14,3 13,4 - - 8 4 - - SE 1016,2 9 0,0
15.10.2017 21:00:00 12,4 11,0 - - 5 3 - - SSE 1016,2 9 0,0
15.10.2017 20:00:00 13,0 11,7 - - 9 5 - - SSE 1016,4 12 0,0
15.10.2017 19:00:00 12,0 9,6 - - 4 2 - - SSW 1016,3 12 0,0
15.10.2017 18:00:00 15,4 11,8 - - 8 4 - - SSW 1015,8 16 0,0
15.10.2017 17:00:00 16,7 11,9 - - 13 7 - - SSW 1015,7 24 0,0
15.10.2017 16:00:00 16,6 12,0 - - 15 8 - - SSW 1016,0 19 0,0
15.10.2017 15:00:00 16,6 12,3 - - 15 8 - - SSW 1016,5 24 0,0
15.10.2017 14:00:00 16,5 12,1 - - 18 10 - - SW 1016,7 30 0,0
15.10.2017 13:00:00 16,6 12,0 - - 24 13 - - SSW 1016,7 30 0,0
15.10.2017 12:00:00 16,6 13,1 - - 21 11 - - SSW 1016,6 26 0,0
15.10.2017 11:00:00 16,3 13,8 - - 18 10 - - SSW 1016,6 12 0,0
15.10.2017 10:00:00 15,8 15,0 14,7 14,5 13 7 - - S 1016,8 7 0,0
15.10.2017 09:00:00 14,8 14,2 - - 11 6 - - S 1017,1 2,5 0,0
15.10.2017 08:00:00 15,0 14,1 - - 15 8 - - SSW 1016,9 7 0,0
15.10.2017 07:00:00 11,8 11,7 - - 2 1 - - SE 1016,8 4,5 0,0
15.10.2017 06:00:00 10,6 9,9 - - 2 1 - - NE 1017,3 1,8 0,0
15.10.2017 05:00:00 12,6 12,0 - - 2 1 - - N 1017,7 4,2 0,0
15.10.2017 04:00:00 12,9 12,2 - - 4 2 - - S 1018,4 7 0,0
15.10.2017 03:00:00 11,8 11,1 - - 5 3 - - SW 1019,4 7 0,0
15.10.2017 02:00:00 13,0 11,6 - - 9 5 - - S 1020,0 12 0,0
15.10.2017 01:00:00 14,1 12,4 - - 16 9 - - S 1020,3 14 0,0
15.10.2017 00:00:00 12,6 11,1 - - 9 5 - - SE 1020,7 15 0,0
14.10.2017 23:00:00 13,7 12,2 - - 9 5 - - SE 1021,2 30 0,0
14.10.2017 22:00:00 14,2 12,2 - - 11 6 - - ESE 1021,6 40 0,0

tt = temperature
td = dewpoint
tt -20cm = temperature -20cm
tt -100cm = temperature -100cm
ff = wind speed
fx = gusts
dd = wind direction
ppp = reduced air pressure
vv = visibility
rr = precipitation

Next stations